| time (UTC) | temp C | wind direction | speed KPH | gust KPH | rain 1hr cm | rain 24hr cm | rain mn cm | humidity % | barometer mb |
| 20260507045034 | 17 | 105 | 1.6 | 3.2 | 0.00 | 0.00 | 0.00 | 87 | 1017.5 |
| 20260507044152 | 17 | 102 | 0.0 | 1.6 | 0.00 | 0.00 | 0.00 | 84 | 1017.4 |
| 20260507043100 | 17 | 276 | 0.0 | 1.6 | 0.00 | 0.00 | 0.00 | 82 | 1017.4 |
| 20260507042032 | 17 | 3 | 0.0 | 1.6 | 0.00 | 0.00 | 0.00 | 81 | 1017.3 |
| 20260507041103 | 17 | 304 | 0.0 | 3.2 | 0.00 | 0.00 | 0.00 | 80 | 1017.2 |
| 20260507040032 | 17 | 167 | 0.0 | 1.6 | 0.00 | 0.00 | 0.00 | 79 | 1017.2 |
| 20260507035038 | 17 | 314 | 1.6 | 3.2 | 0.00 | 0.00 | 0.00 | 77 | 1017.0 |
| 20260507034101 | 17 | 266 | 0.0 | 1.6 | 0.00 | 0.00 | 0.00 | 75 | 1016.9 |
| 20260507033042 | 18 | 239 | 1.6 | 3.2 | 0.00 | 0.00 | 0.00 | 74 | 1016.9 |
| 20260507032026 | 18 | 142 | 1.6 | 1.6 | 0.00 | 0.00 | 0.00 | 72 | 1016.7 |
| 20260507031109 | 18 | 278 | 1.6 | 1.6 | 0.00 | 0.00 | 0.00 | 72 | 1016.6 |
| 20260507030054 | 18 | 295 | 1.6 | 1.6 | 0.00 | 0.00 | 0.00 | 74 | 1016.6 |
| 20260507025024 | 18 | 269 | 1.6 | 3.2 | 0.00 | 0.00 | 0.00 | 73 | 1016.5 |
| 20260507024019 | 18 | 299 | 1.6 | 3.2 | 0.00 | 0.00 | 0.00 | 72 | 1016.4 |
| 20260507023035 | 18 | 307 | 0.0 | 3.2 | 0.00 | 0.00 | 0.00 | 73 | 1016.3 |
| 20260507022042 | 18 | 247 | 0.0 | 1.6 | 0.00 | 0.00 | 0.00 | 80 | 1016.3 |
| 20260507021053 | 18 | 118 | 1.6 | 4.8 | 0.00 | 0.00 | 0.00 | 82 | 1016.2 |
| 20260507020041 | 18 | 114 | 3.2 | 4.8 | 0.00 | 0.00 | 0.00 | 81 | 1016.1 |
| 20260507015054 | 17 | 111 | 3.2 | 4.8 | 0.00 | 0.00 | 0.00 | 84 | 1016.1 |
| 20260507014059 | 18 | 114 | 3.2 | 4.8 | 0.00 | 0.00 | 0.00 | 82 | 1016.0 |
| 20260507013038 | 18 | 124 | 1.6 | 4.8 | 0.00 | 0.00 | 0.00 | 83 | 1015.9 |
| 20260507012017 | 18 | 116 | 3.2 | 4.8 | 0.00 | 0.00 | 0.00 | 83 | 1015.9 |
| 20260507011039 | 18 | 123 | 4.8 | 6.4 | 0.00 | 0.00 | 0.00 | 83 | 1015.8 |
| 20260507010046 | 18 | 123 | 3.2 | 6.4 | 0.00 | 0.00 | 0.00 | 84 | 1015.8 |
| 20260507005616 | 18 | 116 | 1.6 | 6.4 | 0.00 | 0.00 | 0.00 | 83 | 1015.8 |
| 20260507004525 | 18 | 110 | 3.2 | 6.4 | 0.00 | 0.00 | 0.00 | 84 | 1015.8 |
| 20260507003538 | 18 | 123 | 3.2 | 8.0 | 0.00 | 0.00 | 0.00 | 84 | 1015.8 |
| 20260507002527 | 18 | 120 | 4.8 | 9.7 | 0.00 | 0.00 | 0.00 | 83 | 1015.7 |
| 20260507001523 | 18 | 132 | 3.2 | 8.0 | 0.00 | 0.00 | 0.00 | 84 | 1015.7 |
| 20260507000554 | 18 | 124 | 4.8 | 8.0 | 0.00 | 0.00 | 0.00 | 82 | 1015.7 |
| 20260506235702 | 18 | 127 | 3.2 | 6.4 | 0.00 | 0.00 | 0.00 | 81 | 1015.7 |
| 20260506234604 | 18 | 125 | 4.8 | 8.0 | 0.00 | 0.00 | 0.00 | 81 | 1015.7 |
| 20260506233610 | 18 | 107 | 3.2 | 6.4 | 0.00 | 0.00 | 0.00 | 81 | 1015.7 |
| 20260506232549 | 18 | 111 | 4.8 | 8.0 | 0.00 | 0.00 | 0.00 | 82 | 1015.8 |
| 20260506231526 | 18 | 126 | 4.8 | 12.9 | 0.00 | 0.00 | 0.00 | 79 | 1015.9 |
| 20260506230552 | 18 | 118 | 3.2 | 6.4 | 0.00 | 0.00 | 0.00 | 80 | 1016.0 |
| 20260506225536 | 18 | 121 | 3.2 | 6.4 | 0.00 | 0.00 | 0.00 | 81 | 1016.1 |
| 20260506224524 | 18 | 125 | 3.2 | 8.0 | 0.00 | 0.00 | 0.00 | 80 | 1016.3 |
| 20260506223519 | 18 | 120 | 3.2 | 6.4 | 0.00 | 0.00 | 0.00 | 82 | 1016.4 |
| 20260506222610 | 18 | 124 | 3.2 | 6.4 | 0.00 | 0.00 | 0.00 | 82 | 1016.5 |
| 20260506221556 | 18 | 117 | 3.2 | 6.4 | 0.00 | 0.00 | 0.00 | 81 | 1016.6 |
| 20260506220553 | 18 | 116 | 3.2 | 6.4 | 0.00 | 0.00 | 0.00 | 81 | 1016.8 |
| 20260506215606 | 18 | 122 | 3.2 | 8.0 | 0.00 | 0.00 | 0.00 | 81 | 1017.0 |
| 20260506214538 | 18 | 112 | 3.2 | 6.4 | 0.00 | 0.00 | 0.00 | 80 | 1017.0 |
| 20260506213607 | 18 | 131 | 3.2 | 8.0 | 0.00 | 0.00 | 0.00 | 79 | 1017.1 |
| 20260506212558 | 19 | 121 | 3.2 | 6.4 | 0.00 | 0.00 | 0.00 | 78 | 1017.2 |
| 20260506211525 | 18 | 128 | 3.2 | 4.8 | 0.00 | 0.00 | 0.00 | 78 | 1017.3 |
| 20260506210548 | 18 | 113 | 3.2 | 6.4 | 0.00 | 0.00 | 0.00 | 77 | 1017.4 |
| 20260506205622 | 18 | 111 | 3.2 | 6.4 | 0.00 | 0.00 | 0.00 | 76 | 1017.5 |
| 20260506204531 | 18 | 118 | 1.6 | 4.8 | 0.00 | 0.00 | 0.00 | 77 | 1017.5 |
| 20260506203612 | 18 | 121 | 3.2 | 4.8 | 0.00 | 0.00 | 0.00 | 80 | 1017.6 |
| 20260506202550 | 18 | 116 | 3.2 | 6.4 | 0.00 | 0.00 | 0.00 | 80 | 1017.7 |
| 20260506201547 | 18 | 123 | 3.2 | 6.4 | 0.00 | 0.00 | 0.00 | 79 | 1017.9 |
| 20260506200553 | 18 | 115 | 3.2 | 4.8 | 0.00 | 0.00 | 0.00 | 80 | 1018.0 |
| 20260506195521 | 18 | 109 | 4.8 | 6.4 | 0.00 | 0.00 | 0.00 | 80 | 1018.1 |
| 20260506194517 | 18 | 110 | 3.2 | 4.8 | 0.00 | 0.00 | 0.00 | 79 | 1018.2 |
| 20260506193541 | 18 | 131 | 3.2 | 4.8 | 0.00 | 0.00 | 0.00 | 79 | 1018.3 |
| 20260506192548 | 18 | 121 | 3.2 | 4.8 | 0.00 | 0.00 | 0.00 | 79 | 1018.4 |
| 20260506191617 | 18 | 125 | 3.2 | 6.4 | 0.00 | 0.00 | 0.00 | 78 | 1018.5 |
| 20260506190520 | 18 | 119 | 3.2 | 4.8 | 0.00 | 0.00 | 0.00 | 80 | 1018.6 |
| 20260506185536 | 17 | 118 | 3.2 | 4.8 | 0.00 | 0.00 | 0.00 | 82 | 1018.7 |
| 20260506184531 | 18 | 118 | 3.2 | 4.8 | 0.00 | 0.00 | 0.00 | 81 | 1018.7 |
| 20260506183602 | 17 | 125 | 3.2 | 4.8 | 0.00 | 0.00 | 0.00 | 83 | 1018.8 |
| 20260506182531 | 18 | 125 | 3.2 | 4.8 | 0.00 | 0.00 | 0.00 | 82 | 1018.8 |
| 20260506181611 | 17 | 119 | 3.2 | 6.4 | 0.00 | 0.00 | 0.00 | 83 | 1018.8 |
| 20260506180620 | 17 | 112 | 1.6 | 3.2 | 0.00 | 0.00 | 0.00 | 83 | 1018.8 |
| 20260506175522 | 17 | 120 | 3.2 | 4.8 | 0.00 | 0.00 | 0.00 | 83 | 1018.8 |
| 20260506174543 | 17 | 117 | 3.2 | 4.8 | 0.00 | 0.00 | 0.00 | 82 | 1018.8 |
| 20260506173542 | 17 | 115 | 3.2 | 6.4 | 0.00 | 0.00 | 0.00 | 82 | 1018.7 |
| 20260506172527 | 17 | 117 | 3.2 | 4.8 | 0.00 | 0.00 | 0.00 | 81 | 1018.7 |
| 20260506171532 | 17 | 118 | 3.2 | 4.8 | 0.00 | 0.00 | 0.00 | 81 | 1018.7 |
| 20260506170527 | 17 | 113 | 1.6 | 4.8 | 0.00 | 0.00 | 0.00 | 81 | 1018.7 |
| 20260506165559 | 17 | 113 | 1.6 | 3.2 | 0.00 | 0.00 | 0.00 | 81 | 1018.6 |
| 20260506164605 | 17 | 111 | 3.2 | 4.8 | 0.00 | 0.00 | 0.00 | 81 | 1018.6 |
| 20260506163525 | 17 | 119 | 3.2 | 3.2 | 0.00 | 0.00 | 0.00 | 80 | 1018.6 |
| 20260506162557 | 16 | 118 | 1.6 | 3.2 | 0.00 | 0.00 | 0.00 | 81 | 1018.5 |
| 20260506161536 | 17 | 109 | 1.6 | 3.2 | 0.00 | 0.00 | 0.00 | 80 | 1018.5 |
| 20260506160541 | 17 | 110 | 1.6 | 3.2 | 0.00 | 0.00 | 0.00 | 79 | 1018.5 |
| 20260506155623 | 17 | 104 | 1.6 | 1.6 | 0.00 | 0.00 | 0.00 | 79 | 1018.6 |
| 20260506154608 | 16 | 107 | 0.0 | 3.2 | 0.00 | 0.00 | 0.00 | 79 | 1018.6 |
| 20260506153555 | 16 | 113 | 1.6 | 1.6 | 0.00 | 0.00 | 0.00 | 80 | 1018.6 |
| 20260506152517 | 16 | 60 | 0.0 | 1.6 | 0.00 | 0.00 | 0.00 | 81 | 1018.6 |
| 20260506151625 | 16 | 116 | 0.0 | 1.6 | 0.00 | 0.00 | 0.00 | 82 | 1018.7 |
| 20260506150518 | 15 | 73 | 0.0 | 1.6 | 0.00 | 0.00 | 0.00 | 82 | 1018.6 |
| 20260506145540 | 15 | 97 | 0.0 | 1.6 | 0.00 | 0.00 | 0.00 | 83 | 1018.6 |
| 20260506144519 | 15 | 102 | 0.0 | 1.6 | 0.00 | 0.00 | 0.00 | 83 | 1018.6 |
| 20260506143542 | 14 | 75 | 0.0 | 1.6 | 0.00 | 0.00 | 0.00 | 84 | 1018.6 |
| 20260506142548 | 13 | 104 | 0.0 | 1.6 | 0.00 | 0.00 | 0.00 | 85 | 1018.4 |
| 20260506141601 | 13 | 0.0 | 1.6 | 0.00 | 0.00 | 0.00 | 86 | 1018.4 | |
| 20260506140606 | 13 | 0.0 | 1.6 | 0.00 | 0.00 | 0.00 | 87 | 1018.4 | |
| 20260506135536 | 13 | 94 | 0.0 | 1.6 | 0.00 | 0.00 | 0.00 | 88 | 1018.4 |
| 20260506134607 | 13 | 58 | 0.0 | 1.6 | 0.00 | 0.00 | 0.00 | 88 | 1018.3 |
| 20260506133554 | 13 | 90 | 0.0 | 1.6 | 0.00 | 0.00 | 0.00 | 88 | 1018.2 |
| 20260506132607 | 12 | 100 | 0.0 | 1.6 | 0.00 | 0.00 | 0.00 | 88 | 1018.0 |
| 20260506131521 | 12 | 111 | 0.0 | 1.6 | 0.00 | 0.00 | 0.00 | 88 | 1017.9 |
| 20260506130620 | 12 | 68 | 0.0 | 1.6 | 0.00 | 0.00 | 0.00 | 87 | 1017.8 |
| 20260506125605 | 13 | 78 | 0.0 | 1.6 | 0.00 | 0.00 | 0.00 | 87 | 1017.7 |
| 20260506124526 | 12 | 0.0 | 1.6 | 0.00 | 0.00 | 0.00 | 87 | 1017.6 | |
| 20260506123532 | 13 | 98 | 0.0 | 1.6 | 0.00 | 0.00 | 0.00 | 88 | 1017.5 |
| 20260506122555 | 13 | 76 | 0.0 | 1.6 | 0.00 | 0.00 | 0.00 | 88 | 1017.6 |
| 20260506121609 | 13 | 0.0 | 1.6 | 0.00 | 0.00 | 0.00 | 88 | 1017.5 | |
| 20260506120556 | 13 | 99 | 0.0 | 1.6 | 0.00 | 0.00 | 0.00 | 89 | 1017.5 |
| 20260506115551 | 13 | 0.0 | 1.6 | 0.00 | 0.00 | 0.00 | 90 | 1017.4 | |
| 20260506114550 | 13 | 95 | 0.0 | 1.6 | 0.00 | 0.00 | 0.00 | 91 | 1017.4 |
| 20260506113536 | 13 | 0.0 | 1.6 | 0.00 | 0.00 | 0.00 | 91 | 1017.3 | |
| 20260506112607 | 13 | 106 | 0.0 | 1.6 | 0.00 | 0.00 | 0.00 | 91 | 1017.3 |
| 20260506111528 | 14 | 97 | 0.0 | 1.6 | 0.00 | 0.00 | 0.00 | 91 | 1017.2 |
| 20260506110620 | 14 | 98 | 0.0 | 1.6 | 0.00 | 0.00 | 0.00 | 90 | 1017.3 |
| 20260506105627 | 14 | 102 | 1.6 | 1.6 | 0.00 | 0.00 | 0.00 | 90 | 1017.3 |
| 20260506104534 | 14 | 99 | 1.6 | 1.6 | 0.00 | 0.00 | 0.00 | 90 | 1017.3 |
| 20260506103521 | 15 | 98 | 1.6 | 1.6 | 0.00 | 0.00 | 0.00 | 90 | 1017.3 |
| 20260506102547 | 15 | 100 | 1.6 | 1.6 | 0.00 | 0.00 | 0.00 | 90 | 1017.3 |
| 20260506101550 | 15 | 104 | 1.6 | 3.2 | 0.00 | 0.00 | 0.00 | 89 | 1017.2 |
| 20260506100603 | 15 | 103 | 1.6 | 3.2 | 0.00 | 0.00 | 0.00 | 89 | 1017.3 |
| 20260506095551 | 15 | 102 | 1.6 | 3.2 | 0.00 | 0.00 | 0.00 | 89 | 1017.3 |
| 20260506094530 | 15 | 101 | 1.6 | 3.2 | 0.00 | 0.00 | 0.00 | 89 | 1017.4 |
| 20260506093624 | 15 | 100 | 1.6 | 3.2 | 0.00 | 0.00 | 0.00 | 90 | 1017.4 |
| 20260506092633 | 15 | 110 | 1.6 | 4.8 | 0.00 | 0.00 | 0.00 | 90 | 1017.4 |
| 20260506091518 | 15 | 109 | 1.6 | 3.2 | 0.00 | 0.00 | 0.00 | 90 | 1017.4 |
| 20260506090531 | 15 | 104 | 1.6 | 3.2 | 0.00 | 0.00 | 0.00 | 91 | 1017.5 |
| 20260506085547 | 15 | 106 | 1.6 | 3.2 | 0.00 | 0.03 | 0.00 | 91 | 1017.6 |
| 20260506084534 | 15 | 106 | 1.6 | 3.2 | 0.00 | 0.03 | 0.00 | 91 | 1017.6 |
| 20260506083614 | 15 | 104 | 1.6 | 3.2 | 0.00 | 0.05 | 0.00 | 90 | 1017.7 |
| 20260506082517 | 15 | 106 | 1.6 | 3.2 | 0.00 | 0.05 | 0.00 | 90 | 1017.7 |
| 20260506081626 | 15 | 99 | 1.6 | 3.2 | 0.00 | 0.05 | 0.00 | 89 | 1017.8 |
| 20260506080535 | 15 | 102 | 1.6 | 3.2 | 0.00 | 0.05 | 0.00 | 88 | 1017.8 |
| 20260506072625 | 15 | 100 | 1.6 | 3.2 | 0.00 | 0.08 | 0.00 | 89 | 1017.7 |
| 20260506071526 | 15 | 102 | 1.6 | 3.2 | 0.00 | 0.08 | 0.00 | 89 | 1017.7 |
| 20260506070615 | 15 | 111 | 1.6 | 3.2 | 0.00 | 0.08 | 0.00 | 89 | 1017.6 |
| 20260506061556 | 15 | 123 | 0.0 | 1.6 | 0.00 | 0.08 | 0.08 | 89 | 1017.3 |
| 20260506060527 | 15 | 115 | 1.6 | 3.2 | 0.00 | 0.08 | 0.08 | 89 | 1017.2 |
| 20260506050520 | 15 | 108 | 1.6 | 3.2 | 0.00 | 0.08 | 0.08 | 89 | 1016.8 |